TimeEDT,TemperatureF,Dew PointF,Humidity,Sea Level PressureIn,VisibilityMPH,Wind Direction,Wind SpeedMPH,Gust SpeedMPH,PrecipitationIn,Events,Conditions,WindDirDegrees,DateUTC
12:53 AM,80.1,69.1,69,30.22,10.0,Calm,Calm,-,N/A,,Partly Cloudy,0,2013-07-16 04:53:00
1:53 AM,75.9,70.0,82,30.21,10.0,Calm,Calm,-,N/A,,Scattered Clouds,0,2013-07-16 05:53:00
2:53 AM,73.9,70.0,87,30.21,7.0,Calm,Calm,-,N/A,,Mostly Cloudy,0,2013-07-16 06:53:00
3:53 AM,73.9,69.1,85,30.21,7.0,Calm,Calm,-,N/A,,Scattered Clouds,0,2013-07-16 07:53:00
4:53 AM,73.0,69.1,87,30.22,5.0,West,3.5,-,N/A,,Clear,270,2013-07-16 08:53:00
5:53 AM,72.0,68.0,87,30.24,4.0,Calm,Calm,-,N/A,,Clear,0,2013-07-16 09:53:00
6:53 AM,73.9,70.0,87,30.25,6.0,Calm,Calm,-,N/A,,Mostly Cloudy,0,2013-07-16 10:53:00
7:53 AM,81.0,72.0,74,30.26,10.0,NNW,3.5,-,N/A,,Clear,330,2013-07-16 11:53:00
8:53 AM,84.0,71.1,65,30.27,10.0,NNW,5.8,-,N/A,,Clear,340,2013-07-16 12:53:00
9:53 AM,86.0,68.0,55,30.27,10.0,North,6.9,-,N/A,,Clear,10,2013-07-16 13:53:00
10:53 AM,87.1,64.9,48,30.26,-9999.0,NNE,9.2,-,N/A,,Clear,20,2013-07-16 14:53:00
11:53 AM,88.0,66.9,49,30.26,-9999.0,NW,8.1,-,N/A,,Clear,310,2013-07-16 15:53:00
12:53 PM,89.1,64.9,45,30.24,10.0,North,4.6,-,N/A,,Scattered Clouds,360,2013-07-16 16:53:00
1:53 PM,91.0,66.0,44,30.23,10.0,North,9.2,-,N/A,,Clear,350,2013-07-16 17:53:00
2:53 PM,91.0,64.0,41,30.22,10.0,North,8.1,-,N/A,,Clear,10,2013-07-16 18:53:00
3:53 PM,91.9,64.0,39,30.20,10.0,NNE,9.2,-,N/A,,Clear,20,2013-07-16 19:53:00
4:53 PM,91.0,64.0,41,30.20,10.0,NNW,10.4,-,N/A,,Partly Cloudy,340,2013-07-16 20:53:00
5:53 PM,91.0,64.0,41,30.19,10.0,North,8.1,-,N/A,,Clear,350,2013-07-16 21:53:00
6:53 PM,90.0,64.9,43,30.19,10.0,North,6.9,-,N/A,,Clear,360,2013-07-16 22:53:00
7:53 PM,84.9,70.0,61,30.19,10.0,Calm,Calm,-,N/A,,Clear,0,2013-07-16 23:53:00
8:53 PM,78.1,71.1,79,30.20,10.0,Calm,Calm,-,N/A,,Clear,0,2013-07-17 00:53:00
9:53 PM,75.9,70.0,82,30.20,10.0,Calm,Calm,-,N/A,,Clear,0,2013-07-17 01:53:00
10:53 PM,73.9,70.0,87,30.21,9.0,Calm,Calm,-,N/A,,Clear,0,2013-07-17 02:53:00
11:53 PM,75.9,71.1,85,30.21,10.0,Calm,Calm,-,N/A,,Mostly Cloudy,0,2013-07-17 03:53:00